When you browse on this site, cookies collect data to enhance your experience and personalize the content and advertising you see.
Visit our Privacy Policy to learn more. By continuing to use the site, you agree to this use of cookies and data.
  • In Czech Republic
  • List of Countries
  • For 7 days
  • Water Temperature
  • Weather Map
  • Weather Widgets
  • user-avatar
    Login

    Hourly Weather Bremen

    Today, 26 February, Wednesday

    Time Temperature Precipitation Wind Pressure Humidity
    00:00 0°C° 0 mm 4 mps 743 mmHg 89%
    01:00 +1°C° 0 mm 3 mps 743 mmHg 92%
    02:00 0°C° 0 mm 3 mps 743 mmHg 93%
    03:00 0°C° 0 mm 3 mps 742 mmHg 94%
    04:00 0°C° 0 mm 3 mps 742 mmHg 95%
    05:00 +1°C° 0 mm 2 mps 742 mmHg 96%
    06:00 +1°C° 0 mm 2 mps 742 mmHg 96%
    07:00 +2°C° 0 mm 1 mps 742 mmHg 95%
    08:00 +2°C° 0 mm 2 mps 742 mmHg 92%
    09:00 +2°C° 0 mm 3 mps 743 mmHg 89%
    10:00 +3°C° 0 mm 3 mps 743 mmHg 86%
    11:00 +4°C° 0.1 mm 4 mps 744 mmHg 80%
    12:00 +5°C° 0.1 mm 5 mps 744 mmHg 75%
    13:00 +5°C° 0 mm 5 mps 745 mmHg 70%
    14:00 +5°C° 0.4 mm 5 mps 745 mmHg 70%
    15:00 +5°C° 0.4 mm 5 mps 746 mmHg 71%
    16:00 +5°C° 0.4 mm 5 mps 746 mmHg 72%
    17:00 +4°C° 0.2 mm 4 mps 747 mmHg 78%
    18:00 +2°C° 0.2 mm 3 mps 748 mmHg 83%
    19:00 +1°C° 0.2 mm 3 mps 748 mmHg 89%
    20:00 +1°C° 0 mm 3 mps 749 mmHg 90%
    21:00 +1°C° 0 mm 3 mps 749 mmHg 92%
    22:00 0°C° 0 mm 3 mps 749 mmHg 93%
    23:00 0°C° 0.1 mm 4 mps 750 mmHg 92%

    Tomorrow, 27 February, Thursday

    Time Temperature Precipitation Wind Pressure Humidity
    00:00 0°C° 0.1 mm 4 mps 750 mmHg 91%
    01:00 0°C° 0.1 mm 5 mps 750 mmHg 91%
    02:00 0°C° 0 mm 5 mps 750 mmHg 91%
    03:00 -1°C° 0 mm 5 mps 750 mmHg 91%
    04:00 -1°C° 0 mm 5 mps 750 mmHg 91%
    05:00 -1°C° 0 mm 4 mps 750 mmHg 92%
    06:00 -2°C° 0 mm 4 mps 750 mmHg 93%
    07:00 -2°C° 0 mm 4 mps 750 mmHg 94%
    08:00 -1°C° 0 mm 4 mps 750 mmHg 90%
    09:00 0°C° 0 mm 4 mps 750 mmHg 86%
    10:00 +1°C° 0 mm 4 mps 750 mmHg 82%
    11:00 +3°C° 0 mm 4 mps 749 mmHg 78%
    12:00 +3°C° 0 mm 4 mps 749 mmHg 74%
    13:00 +4°C° 0 mm 4 mps 748 mmHg 70%
    14:00 +4°C° 0.1 mm 3 mps 748 mmHg 70%
    15:00 +4°C° 0.1 mm 3 mps 747 mmHg 71%
    16:00 +5°C° 0.1 mm 2 mps 747 mmHg 71%
    17:00 +4°C° 0.2 mm 2 mps 747 mmHg 78%
    18:00 +3°C° 0.2 mm 2 mps 747 mmHg 85%
    19:00 +3°C° 0.2 mm 1 mps 747 mmHg 92%
    20:00 +2°C° 0.2 mm 2 mps 748 mmHg 93%
    21:00 +2°C° 0.2 mm 2 mps 748 mmHg 95%
    22:00 +2°C° 0.2 mm 2 mps 749 mmHg 96%
    23:00 +1°C° 0.3 mm 3 mps 750 mmHg 95%

    Day after tomorrow, 28 February, Friday

    Time Temperature Precipitation Wind Pressure Humidity
    00:00 0°C° 0.3 mm 4 mps 751 mmHg 93%
    01:00 0°C° 0.3 mm 4 mps 751 mmHg 91%
    02:00 0°C° 0 mm 5 mps 752 mmHg 89%
    03:00 0°C° 0 mm 5 mps 753 mmHg 88%
    04:00 -1°C° 0 mm 5 mps 753 mmHg 86%
    05:00 -1°C° 0 mm 5 mps 754 mmHg 87%
    06:00 -1°C° 0 mm 5 mps 755 mmHg 88%
    07:00 -1°C° 0 mm 5 mps 756 mmHg 89%
    08:00 -1°C° 0 mm 6 mps 756 mmHg 85%
    09:00 +2°C° 0 mm 6 mps 757 mmHg 82%
    10:00 +3°C° 0 mm 7 mps 757 mmHg 78%
    11:00 +3°C° 0 mm 6 mps 758 mmHg 76%
    12:00 +4°C° 0 mm 6 mps 758 mmHg 74%
    13:00 +4°C° 0 mm 6 mps 758 mmHg 72%
    14:00 +4°C° 0 mm 6 mps 758 mmHg 72%
    15:00 +5°C° 0 mm 5 mps 758 mmHg 72%
    16:00 +3°C° 0 mm 5 mps 758 mmHg 72%
    17:00 +4°C° 0 mm 4 mps 757 mmHg 76%
    18:00 +3°C° 0 mm 4 mps 757 mmHg 79%
    19:00 +2°C° 0 mm 3 mps 757 mmHg 83%
    20:00 +1°C° 0 mm 4 mps 756 mmHg 82%
    21:00 +1°C° 0 mm 4 mps 755 mmHg 81%
    22:00 +1°C° 0 mm 5 mps 754 mmHg 80%
    23:00 +1°C° 0.6 mm 6 mps 753 mmHg 86%

    29 February, Saturday

    Time Temperature Precipitation Wind Pressure Humidity
    00:00 +1°C° 0.6 mm 6 mps 752 mmHg 91%
    01:00 -1°C° 0.6 mm 7 mps 751 mmHg 96%
    02:00 0°C° 1.2 mm 7 mps 750 mmHg 95%
    03:00 +2°C° 1.2 mm 6 mps 749 mmHg 94%
    04:00 +3°C° 1.2 mm 6 mps 747 mmHg 94%
    05:00 +4°C° 0.6 mm 6 mps 747 mmHg 94%
    06:00 +5°C° 0.6 mm 6 mps 746 mmHg 93%
    07:00 +7°C° 0.6 mm 6 mps 746 mmHg 93%
    08:00 +7°C° 0.1 mm 6 mps 745 mmHg 92%
    09:00 +7°C° 0.1 mm 6 mps 744 mmHg 91%
    10:00 +8°C° 0.1 mm 6 mps 744 mmHg 89%
    11:00 +9°C° 0 mm 6 mps 743 mmHg 85%
    12:00 +10°C° 0 mm 7 mps 743 mmHg 80%
    13:00 +11°C° 0 mm 8 mps 742 mmHg 75%
    14:00 +11°C° 0 mm 8 mps 741 mmHg 74%
    15:00 +11°C° 0 mm 8 mps 740 mmHg 73%
    16:00 +10°C° 0 mm 8 mps 739 mmHg 72%
    17:00 +9°C° 0.5 mm 7 mps 740 mmHg 75%
    18:00 +7°C° 0.5 mm 6 mps 740 mmHg 77%
    19:00 +6°C° 0.5 mm 5 mps 740 mmHg 80%
    20:00 +4°C° 0 mm 6 mps 740 mmHg 79%
    21:00 +4°C° 0 mm 6 mps 741 mmHg 79%
    22:00 +3°C° 0 mm 6 mps 741 mmHg 79%
    23:00 +3°C° 0 mm 7 mps 741 mmHg 77%

    1 March, Sunday

    Time Temperature Precipitation Wind Pressure Humidity
    00:00 +2°C° 0 mm 7 mps 741 mmHg 76%
    01:00 +2°C° 0 mm 7 mps 741 mmHg 74%
    02:00 +1°C° 0 mm 8 mps 741 mmHg 74%
    03:00 +1°C° 0 mm 8 mps 740 mmHg 74%
    04:00 +1°C° 0 mm 9 mps 740 mmHg 74%
    05:00 +1°C° 0 mm 10 mps 740 mmHg 75%
    06:00 +1°C° 0 mm 10 mps 740 mmHg 76%
    07:00 +1°C° 0 mm 11 mps 740 mmHg 77%
    08:00 +1°C° 0 mm 11 mps 740 mmHg 76%
    09:00 +2°C° 0 mm 11 mps 741 mmHg 75%
    10:00 +2°C° 0 mm 11 mps 741 mmHg 74%
    11:00 +3°C° 0.2 mm 11 mps 742 mmHg 70%
    12:00 +3°C° 0.2 mm 11 mps 742 mmHg 66%
    13:00 +4°C° 0.2 mm 12 mps 743 mmHg 62%
    14:00 +4°C° 0.2 mm 11 mps 743 mmHg 62%
    15:00 +5°C° 0.2 mm 10 mps 743 mmHg 62%
    16:00 +3°C° 0.2 mm 9 mps 743 mmHg 63%
    17:00 +3°C° 0.2 mm 9 mps 744 mmHg 69%
    18:00 +2°C° 0.2 mm 8 mps 744 mmHg 75%
    19:00 +2°C° 0.2 mm 7 mps 744 mmHg 82%
    20:00 +2°C° 0.2 mm 7 mps 744 mmHg 84%
    21:00 +2°C° 0.2 mm 7 mps 744 mmHg 86%
    22:00 +2°C° 0.2 mm 7 mps 744 mmHg 87%
    23:00 +2°C° 0.2 mm 7 mps 744 mmHg 85%

    2 March, Monday

    Time Temperature Precipitation Wind Pressure Humidity
    00:00 0°C° 0.2 mm 7 mps 744 mmHg 83%
    01:00 0°C° 0.2 mm 7 mps 745 mmHg 81%
    02:00 0°C° 0 mm 7 mps 745 mmHg 81%
    03:00 0°C° 0 mm 7 mps 745 mmHg 80%
    04:00 0°C° 0 mm 7 mps 745 mmHg 80%
    05:00 0°C° 0 mm 7 mps 745 mmHg 82%
    06:00 +1°C° 0 mm 6 mps 745 mmHg 85%
    07:00 -1°C° 0 mm 6 mps 745 mmHg 87%
    08:00 +1°C° 0 mm 6 mps 745 mmHg 84%
    09:00 +2°C° 0 mm 7 mps 745 mmHg 82%
    10:00 +4°C° 0 mm 7 mps 746 mmHg 79%
    11:00 +4°C° 0.1 mm 6 mps 746 mmHg 81%
    12:00 +4°C° 0.1 mm 6 mps 746 mmHg 84%
    13:00 +5°C° 0.1 mm 5 mps 746 mmHg 86%
    14:00 +5°C° 0.2 mm 5 mps 745 mmHg 85%
    15:00 +5°C° 0.2 mm 5 mps 745 mmHg 84%
    16:00 +6°C° 0.2 mm 4 mps 745 mmHg 83%
    17:00 +5°C° 0.1 mm 4 mps 745 mmHg 86%
    18:00 +5°C° 0.1 mm 4 mps 745 mmHg 89%
    19:00 +5°C° 0.1 mm 4 mps 746 mmHg 92%
    20:00 +4°C° 0.2 mm 3 mps 746 mmHg 92%
    21:00 +4°C° 0.2 mm 3 mps 747 mmHg 93%
    22:00 +5°C° 0.2 mm 2 mps 747 mmHg 94%
    23:00 +5°C° 0.1 mm 2 mps 747 mmHg 94%
    Show more